Showing default

PANDORE, 63244

Orbit data source: Space-Track

PANDORE, 63244 is a payload satellite owned by U-Space (FR) in SSO that was launched on Sat, 15 Mar 2025 UTC via an FALCON 9 launch vehicle from the Air Force Western Test Range (AFWTR). Payload-class satellites include a variety of spacecraft equipped with specific instruments for various scientific and technological missions. These include communications satellites like Starlink; space stations such as the ISS; scientific satellites like the Hubble; Earth observation satellites from companies like Planet Labs, Umbra, and HawkEye 360; GPS; miniature CubeSats for education and research; and military/defense satellites.

Loading next visibility...
Identifier
63244, 2025-052AL
Orbit
SSO
Country
Flag of FRFR
Related business
Manufacturer
U-Space
Mission
Operational Commercial Technology
Bus & Motor
CUBESAT 12U, Unknown motor
Mass
~16 kg wet, ~16 kg dry
Launch date (UTC)
2025-03-15 (1 year ago)
Launch vehicle
FALCON 9
Launch site
Air Force Western Test Range (AFWTR)
Object type
Payload
Rocket body
Debris
Shape & HBR
Box + 2 Pan, 1.0 m
Radar Cross Section
0.155 m², Medium (>0.1 m² and < 1m²)

Expand to show TLE details & history
Last TLE update: 9 hours ago

TLE from 9 hours ago
0 PANDORE
1 63244U 25052AL  26104.16025220  .00001466  00000-0  14034-3 0  9996
2 63244  97.6973 356.7510 0006056  58.2996 301.8814 14.94686068 59040
Epoch: 2026-04-14T03:50Z
TLE epoch observation values (Epoch: 2026-04-14T03:50:45.790Z)
Latitude
-0.00003°
Longitude
96.71972°
Altitude
584.17 km
Speed
7.569 km/s
True Right ascension
23h 47m 00s
True Declination
0° 00' 00"
Sunlit
Object was in daylight at epoch
Visualization orbit readout
Latitude
Unknown
Longitude
Unknown
Altitude
Unknown
Speed
Unknown
Apparent Right ascension
Unknown
Apparent Declination
Unknown
Sunlit
N/A
Visualization observer readout
Local Sidereal Time
19:15:12
Azimuth
Unknown
Elevation
Unknown
Doppler factor
Unknown
Orbital elements
Apogee altitude
584.574 km
Perigee altitude
576.146 km
Semi-major axis
6,958.497 km
Eccentricity
0.00061
Inclination
97.6973°
RAAN
356.751°
Arg. of periapsis
58.2996°
True anomaly
301.82245°
Mean anomaly
301.8814°
Eccentric anomaly
301.85193°
Mean motion
3.73913 °/min
Orbital period
96.28 mins
BSTAR
0.00014034
Loading maneuver chart data...
Computing Atmospheric mass density...
Loading historical data...
Loading historical data...
Loading historical data...
Loading historical data...
Loading historical data...
Loading historical data...
Loading historical data...

Documentation

Showing up to 5 results
|